Durant, OK

8:25 AM CDT on October 17, 2017 (GMT -0500)
Eaker

Weather History for KDUA - January, 2014

Change the Weather History Date:

Monday, January 13, 2014

  Actual Average (KMLC) Record (KMLC)
Temperature  
Mean Temperature 52 °F -  
Max Temperature 62 °F 46 °F 71 °F (1983)
Min Temperature 41 °F 24 °F 2 °F (1963)
Degree Days  
Heating Degree Days 14    
Growing Degree Days 2 (Base 50)    
Moisture  
Dew Point 32 °F    
Average Humidity 48    
Maximum Humidity 82    
Minimum Humidity 23    
Precipitation  
Precipitation 0.00 in - - ()
Sea Level Pressure  
Sea Level Pressure 29.96 in    
Wind  
Wind Speed 13 mph (WNW)    
Max Wind Speed 21 mph    
Max Gust Speed 29 mph    
Visibility 10 miles    
Events      
Averages and records for this station are not official NWS values.
T = Trace of Precipitation, MM = Missing Value Source: NWS Daily Summary

Daily Weather History Graph

Daily Weather History Graph

Search for Another Location

Airport or City:

Trip Planner

Search our weather history database for the weather conditions in past years. The results will help you decide how hot, cold, wet, or windy it might be!

Date:

Astronomy

Jan. 13, 2014 Rise Set
Actual Time 7:31 AM CST 5:37 PM CST
Civil Twilight 7:03 AM CST 6:05 PM CST
Nautical Twilight 6:33 AM CST 6:35 PM CST
Astronomical Twilight 6:02 AM CST 7:05 PM CST
Moon 3:53 PM CST (1/13) 5:21 AM CST (1/13)
Length of Visible Light 11h 01m
Length of Day
10h 06m
Waxing Gibbous, 95% of the Moon is Illuminated
Jan 13
Waxing Gibbous
Jan 15
Full
Jan 23
Last Quarter
Jan 30
New
Feb 6
First Quarter

Hourly Weather History & Observations

Time (CST) Temp. Windchill Dew Point Humidity Pressure Visibility Wind Dir Wind Speed Gust Speed Precip Events Conditions
12:15 AM 60.8 °F - 53.6 °F 77% 29.77 in 10.0 mi SSW 16.1 mph - N/A   Scattered Clouds
12:35 AM 60.8 °F - 53.6 °F 77% 29.77 in 10.0 mi SW 20.7 mph 25.3 mph N/A   Clear
12:55 AM 60.8 °F - 53.6 °F 77% 29.78 in 10.0 mi SW 18.4 mph 24.2 mph N/A   Scattered Clouds
1:15 AM 60.8 °F - 55.4 °F 82% 29.79 in 10.0 mi SW 19.6 mph 26.5 mph N/A   Mostly Cloudy
1:35 AM 60.8 °F - 55.4 °F 82% 29.78 in 10.0 mi SW 15.0 mph 26.5 mph N/A   Mostly Cloudy
1:55 AM 60.8 °F - 55.4 °F 82% 29.79 in 10.0 mi SW 17.3 mph 25.3 mph N/A   Scattered Clouds
2:15 AM 60.8 °F - 55.4 °F 82% 29.81 in 10.0 mi West 9.2 mph 16.1 mph N/A   Mostly Cloudy
2:35 AM 59.0 °F - 53.6 °F 82% 29.82 in 10.0 mi WNW 5.8 mph - N/A   Overcast
2:55 AM 59.0 °F - 53.6 °F 82% 29.82 in 10.0 mi NW 9.2 mph - N/A   Overcast
3:15 AM 57.2 °F - 42.8 °F 59% 29.83 in 10.0 mi North 15.0 mph 21.9 mph N/A   Overcast
3:35 AM 55.4 °F - 37.4 °F 51% 29.84 in 10.0 mi NNW 16.1 mph 20.7 mph N/A   Mostly Cloudy
3:55 AM 53.6 °F - 35.6 °F 51% 29.84 in 10.0 mi NNW 12.7 mph - N/A   Scattered Clouds
4:15 AM 51.8 °F - 35.6 °F 54% 29.85 in 10.0 mi NNW 10.4 mph - N/A   Clear
4:35 AM 51.8 °F - 35.6 °F 54% 29.84 in 10.0 mi North 11.5 mph - N/A   Clear
4:55 AM 50.0 °F - 35.6 °F 58% 29.84 in 10.0 mi North 10.4 mph - N/A   Clear
5:15 AM 50.0 °F - 35.6 °F 58% 29.85 in 10.0 mi NNW 12.7 mph - N/A   Clear
5:35 AM 50.0 °F - 35.6 °F 58% 29.87 in 10.0 mi NNW 11.5 mph - N/A   Clear
5:55 AM 48.2 °F - 35.6 °F 62% 29.88 in 10.0 mi NW 11.5 mph - N/A   Clear
6:15 AM 48.2 °F - 35.6 °F 62% 29.89 in 10.0 mi NW 9.2 mph - N/A   Clear
6:35 AM 46.4 °F 41.9 °F 35.6 °F 66% 29.89 in 10.0 mi NW 9.2 mph - N/A   Clear
6:55 AM 46.4 °F 41.5 °F 33.8 °F 62% 29.90 in 10.0 mi NW 10.4 mph - N/A   Clear
7:15 AM 46.4 °F 40.7 °F 33.8 °F 62% 29.91 in 10.0 mi NW 12.7 mph - N/A   Clear
7:35 AM 46.4 °F 41.5 °F 33.8 °F 62% 29.92 in 10.0 mi NW 10.4 mph - N/A   Clear
7:55 AM 46.4 °F 40.7 °F 32.0 °F 57% 29.94 in 10.0 mi NW 12.7 mph - N/A   Clear
8:15 AM 46.4 °F 41.5 °F 32.0 °F 57% 29.95 in 10.0 mi NW 10.4 mph - N/A   Clear
8:35 AM 48.2 °F - 32.0 °F 54% 29.96 in 10.0 mi NW 9.2 mph - N/A   Clear
8:55 AM 50.0 °F - 32.0 °F 50% 29.97 in 10.0 mi NW 13.8 mph 18.4 mph N/A   Clear
9:15 AM 50.0 °F - 30.2 °F 47% 29.99 in 10.0 mi NW 13.8 mph 18.4 mph N/A   Clear
9:35 AM 51.8 °F - 30.2 °F 44% 30.00 in 10.0 mi NW 16.1 mph 19.6 mph N/A   Clear
9:55 AM 51.8 °F - 30.2 °F 44% 30.01 in 10.0 mi NW 13.8 mph 19.6 mph N/A   Clear
10:15 AM 51.8 °F - 30.2 °F 44% 30.02 in 10.0 mi NW 13.8 mph - N/A   Clear
10:35 AM 53.6 °F - 30.2 °F 41% 30.02 in 10.0 mi NW 12.7 mph - N/A   Clear
10:55 AM 53.6 °F - 30.2 °F 41% 30.02 in 10.0 mi WNW 11.5 mph 16.1 mph N/A   Clear
11:15 AM 55.4 °F - 32.0 °F 41% 30.01 in 10.0 mi NW 12.7 mph - N/A   Clear
11:35 AM 57.2 °F - 30.2 °F 36% 30.01 in 10.0 mi NW 16.1 mph 19.6 mph N/A   Clear
11:55 AM 59.0 °F - 30.2 °F 34% 30.00 in 10.0 mi NW 15.0 mph 20.7 mph N/A   Clear
12:15 PM 59.0 °F - 30.2 °F 34% 30.00 in 10.0 mi NW 15.0 mph - N/A   Clear
12:35 PM 59.0 °F - 30.2 °F 34% 29.99 in 10.0 mi NW 18.4 mph 21.9 mph N/A   Clear
12:55 PM 59.0 °F - 30.2 °F 34% 29.98 in 10.0 mi NW 15.0 mph 23.0 mph N/A   Clear
1:15 PM 60.8 °F - 30.2 °F 31% 29.98 in 10.0 mi NW 16.1 mph 23.0 mph N/A   Clear
1:35 PM 60.8 °F - 30.2 °F 31% 29.98 in 10.0 mi NW 16.1 mph 23.0 mph N/A   Clear
1:55 PM 60.8 °F - 28.4 °F 29% 29.99 in 10.0 mi WNW 16.1 mph 24.2 mph N/A   Clear
2:15 PM 60.8 °F - 28.4 °F 29% 29.99 in 10.0 mi NW 19.6 mph 28.8 mph N/A   Clear
2:35 PM 60.8 °F - 28.4 °F 29% 29.99 in 10.0 mi NW 17.3 mph 26.5 mph N/A   Clear
2:55 PM 60.8 °F - 28.4 °F 29% 30.00 in 10.0 mi WNW 13.8 mph 25.3 mph N/A   Clear
3:15 PM 62.6 °F - 28.4 °F 27% 30.00 in 10.0 mi NW 16.1 mph 20.7 mph N/A   Clear
3:35 PM 60.8 °F - 26.6 °F 27% 30.00 in 10.0 mi NW 18.4 mph 21.9 mph N/A   Clear
3:55 PM 62.6 °F - 26.6 °F 26% 30.00 in 10.0 mi NW 13.8 mph 17.3 mph N/A   Clear
4:15 PM 60.8 °F - 23.0 °F 23% 30.00 in 10.0 mi WNW 13.8 mph 20.7 mph N/A   Clear
4:35 PM 60.8 °F - 23.0 °F 23% 30.00 in 10.0 mi NW 15.0 mph 19.6 mph N/A   Clear
4:55 PM 60.8 °F - 23.0 °F 23% 30.01 in 10.0 mi NW 13.8 mph - N/A   Clear
5:15 PM 59.0 °F - 23.0 °F 25% 30.01 in 10.0 mi NW 8.1 mph - N/A   Clear
5:35 PM 55.4 °F - 23.0 °F 29% 30.01 in 10.0 mi NW 6.9 mph - N/A   Clear
5:55 PM 55.4 °F - 23.0 °F 29% 30.02 in 10.0 mi NW 6.9 mph - N/A   Clear
6:15 PM 53.6 °F - 23.0 °F 30% 30.02 in 10.0 mi NW 6.9 mph - N/A   Clear
6:35 PM 53.6 °F - 23.0 °F 30% 30.02 in 10.0 mi WNW 4.6 mph - N/A   Clear
6:55 PM 50.0 °F - 23.0 °F 35% 30.03 in 10.0 mi West 4.6 mph - N/A   Clear
7:15 PM 50.0 °F - 24.8 °F 37% 30.03 in 10.0 mi West 3.5 mph - N/A   Clear
7:35 PM 46.4 °F 45.2 °F 24.8 °F 43% 30.04 in 10.0 mi West 3.5 mph - N/A   Clear
7:55 PM 46.4 °F 44.3 °F 24.8 °F 43% 30.04 in 10.0 mi West 4.6 mph - N/A   Clear
8:15 PM 44.6 °F 41.4 °F 26.6 °F 49% 30.04 in 10.0 mi West 5.8 mph - N/A   Clear
8:35 PM 44.6 °F 41.4 °F 26.6 °F 49% 30.05 in 10.0 mi West 5.8 mph - N/A   Clear
8:55 PM 44.6 °F 41.4 °F 26.6 °F 49% 30.05 in 10.0 mi West 5.8 mph - N/A   Clear
9:15 PM 44.6 °F 42.2 °F 26.6 °F 49% 30.05 in 10.0 mi West 4.6 mph - N/A   Clear
9:35 PM 42.8 °F 40.1 °F 26.6 °F 53% 30.05 in 10.0 mi WSW 4.6 mph - N/A   Clear
9:55 PM 42.8 °F 41.1 °F 26.6 °F 53% 30.05 in 10.0 mi WSW 3.5 mph - N/A   Clear
10:15 PM 42.8 °F 40.1 °F 26.6 °F 53% 30.05 in 10.0 mi WSW 4.6 mph - N/A   Clear
10:35 PM 42.8 °F 39.3 °F 26.6 °F 53% 30.05 in 10.0 mi WSW 5.8 mph - N/A   Clear
10:55 PM 41.0 °F 38.0 °F 24.8 °F 53% 30.04 in 10.0 mi SW 4.6 mph - N/A   Clear
11:15 PM 41.0 °F 37.1 °F 24.8 °F 53% 30.04 in 10.0 mi WSW 5.8 mph - N/A   Clear
11:35 PM 41.0 °F 37.1 °F 24.8 °F 53% 30.03 in 10.0 mi WSW 5.8 mph - N/A   Clear
11:55 PM 41.0 °F 36.4 °F 24.8 °F 53% 30.03 in 10.0 mi WSW 6.9 mph - N/A   Clear